Weather History for KELP - September, 2014

Change the Weather History Date:

Thursday, September 25, 2014

  Actual Average Record
Temperature  
Mean Temperature 74 °F 72 °F  
Max Temperature 84 °F 85 °F 96 °F (1977)
Min Temperature 64 °F 60 °F 45 °F (1889)
Degree Days  
Heating Degree Days 0 0  
Month to date heating degree days 0 0  
Since 1 July heating degree days 0 0  
Cooling Degree Days 9 8  
Month to date cooling degree days 269 283  
Year to date cooling degree days 2488 2212  
Growing Degree Days 24 (Base 50)    
Moisture  
Dew Point 54 °F    
Average Humidity 54    
Maximum Humidity 73    
Minimum Humidity 34    
Precipitation  
Precipitation 0.00 in 0.04 in 0.82 in (1978)
Month to date precipitation 4.23 1.32  
Year to date precipitation 7.36 7.64  
Snow  
Snow 0.00 in - - ()
Month to date snowfall 0.0  
Since 1 July snowfall 0.0  
Since 1 September snowfall 0.0  
Snow Depth 0.00 in    
Sea Level Pressure  
Sea Level Pressure 29.98 in    
Wind  
Wind Speed 7 mph (East)    
Max Wind Speed 17 mph    
Max Gust Speed 22 mph    
Visibility 10 miles    
Events      
T = Trace of Precipitation, MM = Missing Value Source: NWS Daily Summary

Daily Weather History Graph

Daily Weather History Graph

Search for Another Location

Airport or City:

Trip Planner

Search our weather history database for the weather conditions in past years. The results will help you decide how hot, cold, wet, or windy it might be!

Date:

Astronomy

Sep. 25, 2014 Rise Set
Actual Time 6:55 AM MDT 6:58 PM MDT
Civil Twilight 6:31 AM MDT 7:22 PM MDT
Nautical Twilight 6:02 AM MDT 7:50 PM MDT
Astronomical Twilight 5:34 AM MDT 8:19 PM MDT
Moon 8:10 AM MDT (9/25) 7:51 PM MDT (9/25)
Length of Visible Light 12h 51m
Length of Day
12h 02m
New Moon, 2% of the Moon is Illuminated
Sep 25
New Moon
Oct 1
First Quarter
Oct 8
Full
Oct 15
Last Quarter
Oct 23
New

Hourly Weather History & Observations

Time (MDT) Temp. Heat Index Dew Point Humidity Pressure Visibility Wind Dir Wind Speed Gust Speed Precip Events Conditions
12:51 AM 69.1 °F - 55.0 °F 61% 29.99 in 10.0 mi NNW 6.9 mph - N/A   Scattered Clouds
1:51 AM 68.0 °F - 55.0 °F 63% 30.01 in 10.0 mi South 11.5 mph - N/A   Scattered Clouds
2:51 AM 66.0 °F - 54.0 °F 65% 29.99 in 10.0 mi South 6.9 mph - N/A   Mostly Cloudy
3:51 AM 66.0 °F - 55.0 °F 68% 29.99 in 10.0 mi Calm Calm - N/A   Scattered Clouds
4:51 AM 64.9 °F - 55.0 °F 70% 29.98 in 10.0 mi North 4.6 mph - N/A   Partly Cloudy
5:51 AM 64.9 °F - 55.0 °F 70% 29.99 in 10.0 mi North 5.8 mph - N/A   Partly Cloudy
6:51 AM 64.0 °F - 55.0 °F 73% 30.01 in 10.0 mi NNE 6.9 mph - N/A   Partly Cloudy
7:51 AM 64.0 °F - 55.0 °F 73% 30.03 in 10.0 mi North 6.9 mph - N/A   Partly Cloudy
8:51 AM 66.9 °F - 55.9 °F 68% 30.04 in 10.0 mi North 6.9 mph - N/A   Partly Cloudy
9:51 AM 71.1 °F - 55.9 °F 59% 30.04 in 10.0 mi NE 4.6 mph - N/A   Partly Cloudy
10:51 AM 75.0 °F - 55.0 °F 50% 30.03 in 10.0 mi Variable 3.5 mph - N/A   Partly Cloudy
11:51 AM 75.9 °F - 54.0 °F 46% 30.02 in 10.0 mi Calm Calm - N/A   Partly Cloudy
12:51 PM 79.0 °F - 53.1 °F 40% 30.00 in 10.0 mi East 5.8 mph - N/A   Partly Cloudy
1:51 PM 81.0 °F - 52.0 °F 36% 29.96 in 10.0 mi Variable 3.5 mph - N/A   Partly Cloudy
2:51 PM 81.0 °F 80.4 °F 53.1 °F 38% 29.94 in 10.0 mi East 3.5 mph - N/A   Scattered Clouds
3:51 PM 82.0 °F - 52.0 °F 35% 29.92 in 10.0 mi ENE 10.4 mph - N/A   Scattered Clouds
4:51 PM 82.0 °F 81.2 °F 53.1 °F 37% 29.90 in 10.0 mi ESE 9.2 mph - N/A   Partly Cloudy
5:51 PM 80.1 °F - 51.1 °F 36% 29.91 in 10.0 mi East 6.9 mph - N/A   Partly Cloudy
6:51 PM 78.1 °F - 53.1 °F 42% 29.92 in 10.0 mi ESE 12.7 mph - N/A   Partly Cloudy
7:51 PM 75.0 °F - 55.0 °F 50% 29.94 in 10.0 mi East 12.7 mph - N/A   Partly Cloudy
8:51 PM 72.0 °F - 55.9 °F 57% 29.97 in 10.0 mi ESE 16.1 mph - N/A   Partly Cloudy
9:51 PM 71.1 °F - 54.0 °F 55% 30.00 in 10.0 mi SE 10.4 mph - N/A   Partly Cloudy
10:51 PM 69.1 °F - 53.1 °F 57% 30.00 in 10.0 mi SE 5.8 mph - N/A   Partly Cloudy
11:51 PM 68.0 °F - 54.0 °F 61% 29.99 in 10.0 mi ESE 5.8 mph - N/A   Partly Cloudy